| time (UTC) | temp C | wind direction | speed KPH | gust KPH | rain 1hr cm | rain 24hr cm | rain mn cm | humidity % | barometer mb |
| 20260508025906 | 6 | 180 | 4.8 | 6.4 | 0.00 | 0.00 | 0.00 | 68 | 1016.0 |
| 20260508024928 | 6 | 90 | 3.2 | 4.8 | 0.00 | 0.00 | 0.00 | 69 | 1016.1 |
| 20260508023903 | 6 | 90 | 3.2 | 4.8 | 0.00 | 0.00 | 0.00 | 70 | 1016.2 |
| 20260508022858 | 6 | 135 | 4.8 | 6.4 | 0.00 | 0.00 | 0.00 | 70 | 1016.3 |
| 20260508021855 | 6 | 90 | 3.2 | 4.8 | 0.00 | 0.00 | 0.00 | 69 | 1016.4 |
| 20260508020846 | 6 | 135 | 3.2 | 3.2 | 0.00 | 0.00 | 0.00 | 68 | 1016.3 |
| 20260508015841 | 6 | 180 | 3.2 | 4.8 | 0.00 | 0.00 | 0.00 | 67 | 1016.3 |
| 20260508014836 | 6 | 180 | 4.8 | 6.4 | 0.00 | 0.00 | 0.00 | 67 | 1016.6 |
| 20260508013835 | 6 | 90 | 6.4 | 9.7 | 0.00 | 0.00 | 0.00 | 67 | 1016.6 |
| 20260508012851 | 6 | 135 | 3.2 | 4.8 | 0.00 | 0.00 | 0.00 | 67 | 1016.5 |
| 20260508011826 | 6 | 90 | 6.4 | 12.9 | 0.00 | 0.00 | 0.00 | 67 | 1016.4 |
| 20260508010821 | 6 | 135 | 4.8 | 6.4 | 0.00 | 0.00 | 0.00 | 65 | 1016.6 |
| 20260508005814 | 6 | 135 | 4.8 | 6.4 | 0.00 | 0.00 | 0.00 | 64 | 1016.4 |
| 20260508004813 | 6 | 90 | 12.9 | 14.5 | 0.00 | 0.03 | 0.00 | 64 | 1016.4 |
| 20260508003812 | 6 | 90 | 9.7 | 14.5 | 0.00 | 0.03 | 0.00 | 65 | 1016.6 |
| 20260508002827 | 6 | 68 | 9.7 | 12.9 | 0.00 | 0.03 | 0.00 | 67 | 1016.8 |
| 20260508001804 | 6 | 90 | 6.4 | 9.7 | 0.00 | 0.03 | 0.00 | 68 | 1016.7 |
| 20260508000759 | 6 | 68 | 6.4 | 11.3 | 0.00 | 0.03 | 0.00 | 68 | 1016.7 |
| 20260507235757 | 6 | 90 | 6.4 | 9.7 | 0.00 | 0.03 | 0.00 | 70 | 1016.8 |
| 20260507234813 | 5 | 90 | 8.0 | 9.7 | 0.00 | 0.03 | 0.00 | 70 | 1016.7 |
| 20260507233749 | 6 | 135 | 6.4 | 8.0 | 0.00 | 0.03 | 0.00 | 70 | 1016.9 |
| 20260507232808 | 6 | 135 | 6.4 | 8.0 | 0.00 | 0.03 | 0.00 | 69 | 1016.9 |
| 20260507231738 | 6 | 90 | 4.8 | 6.4 | 0.00 | 0.03 | 0.00 | 69 | 1017.0 |
| 20260507230733 | 6 | 135 | 4.8 | 6.4 | 0.00 | 0.03 | 0.00 | 68 | 1016.7 |
| 20260507225731 | 6 | 90 | 3.2 | 3.2 | 0.00 | 0.05 | 0.00 | 68 | 1016.9 |
| 20260507224727 | 6 | 90 | 3.2 | 3.2 | 0.00 | 0.13 | 0.00 | 67 | 1016.9 |
| 20260507223738 | 6 | 180 | 3.2 | 4.8 | 0.00 | 0.15 | 0.00 | 67 | 1017.1 |
| 20260507222714 | 6 | 135 | 8.0 | 9.7 | 0.00 | 0.20 | 0.00 | 66 | 1017.0 |
| 20260507221715 | 6 | 90 | 6.4 | 6.4 | 0.00 | 0.20 | 0.00 | 65 | 1017.1 |
| 20260507220711 | 6 | 90 | 8.0 | 11.3 | 0.00 | 0.23 | 0.00 | 65 | 1017.1 |
| 20260507215707 | 6 | 90 | 9.7 | 12.9 | 0.00 | 0.23 | 0.23 | 64 | 1017.2 |
| 20260507214804 | 6 | 90 | 8.0 | 12.9 | 0.00 | 0.28 | 0.23 | 63 | 1017.0 |
| 20260507213758 | 6 | 135 | 8.0 | 9.7 | 0.00 | 0.30 | 0.23 | 63 | 1017.3 |
| 20260507212752 | 6 | 90 | 6.4 | 6.4 | 0.00 | 0.36 | 0.23 | 62 | 1017.5 |
| 20260507211748 | 7 | 135 | 6.4 | 6.4 | 0.00 | 0.36 | 0.23 | 62 | 1017.6 |
| 20260507210744 | 7 | 68 | 6.4 | 8.0 | 0.00 | 0.36 | 0.23 | 61 | 1017.6 |
| 20260507205739 | 7 | 90 | 6.4 | 9.7 | 0.00 | 0.36 | 0.23 | 61 | 1017.3 |
| 20260507204733 | 7 | 90 | 6.4 | 9.7 | 0.00 | 0.36 | 0.23 | 56 | 1017.4 |
| 20260507203817 | 7 | 135 | 6.4 | 9.7 | 0.00 | 0.36 | 0.23 | 55 | 1017.5 |
| 20260507202727 | 7 | 90 | 6.4 | 9.7 | 0.00 | 0.36 | 0.23 | 54 | 1017.4 |
| 20260507201722 | 8 | 135 | 9.7 | 11.3 | 0.00 | 0.36 | 0.23 | 53 | 1017.2 |
| 20260507200716 | 8 | 45 | 9.7 | 12.9 | 0.00 | 0.36 | 0.23 | 52 | 1017.3 |
| 20260507195713 | 8 | 90 | 6.4 | 8.0 | 0.00 | 0.36 | 0.23 | 51 | 1017.1 |
| 20260507194711 | 9 | 90 | 6.4 | 8.0 | 0.00 | 0.36 | 0.23 | 51 | 1017.3 |
| 20260507193727 | 9 | 135 | 6.4 | 9.7 | 0.00 | 0.36 | 0.23 | 50 | 1017.4 |
| 20260507192804 | 10 | 90 | 6.4 | 8.0 | 0.00 | 0.36 | 0.23 | 50 | 1017.4 |
| 20260507191759 | 10 | 90 | 6.4 | 9.7 | 0.00 | 0.36 | 0.23 | 48 | 1017.3 |
| 20260507190755 | 11 | 90 | 6.4 | 8.0 | 0.00 | 0.36 | 0.23 | 45 | 1017.3 |
| 20260507185750 | 12 | 90 | 3.2 | 4.8 | 0.00 | 0.36 | 0.23 | 44 | 1017.3 |
| 20260507184743 | 13 | 90 | 6.4 | 8.0 | 0.00 | 0.36 | 0.23 | 41 | 1017.2 |
| 20260507183739 | 13 | 90 | 6.4 | 8.0 | 0.00 | 0.36 | 0.23 | 42 | 1017.2 |
| 20260507182734 | 13 | 90 | 4.8 | 6.4 | 0.00 | 0.36 | 0.23 | 43 | 1017.1 |
| 20260507181730 | 12 | 90 | 3.2 | 3.2 | 0.00 | 0.36 | 0.23 | 46 | 1017.1 |
| 20260507180725 | 12 | 270 | 3.2 | 3.2 | 0.00 | 0.36 | 0.23 | 51 | 1017.2 |
| 20260507175718 | 12 | 248 | 6.4 | 9.7 | 0.00 | 0.36 | 0.23 | 46 | 1017.1 |
| 20260507174736 | 12 | 270 | 3.2 | 6.4 | 0.00 | 0.36 | 0.23 | 45 | 1017.2 |
| 20260507173715 | 12 | 23 | 3.2 | 4.8 | 0.00 | 0.36 | 0.23 | 50 | 1017.2 |
| 20260507172712 | 12 | 315 | 8.0 | 11.3 | 0.00 | 0.36 | 0.23 | 44 | 1017.1 |
| 20260507171707 | 12 | 270 | 3.2 | 6.4 | 0.00 | 0.36 | 0.23 | 44 | 1017.1 |
| 20260507170725 | 13 | 0 | 4.8 | 6.4 | 0.00 | 0.36 | 0.23 | 43 | 1017.4 |
| 20260507165722 | 13 | 0 | 3.2 | 6.4 | 0.00 | 0.36 | 0.23 | 41 | 1017.5 |
| 20260507164653 | 13 | 315 | 6.4 | 6.4 | 0.00 | 0.36 | 0.23 | 41 | 1017.5 |
| 20260507163649 | 13 | 0 | 6.4 | 11.3 | 0.00 | 0.36 | 0.23 | 41 | 1017.3 |
| 20260507162725 | 14 | 0 | 8.0 | 11.3 | 0.00 | 0.36 | 0.23 | 41 | 1017.2 |
| 20260507161700 | 13 | 315 | 6.4 | 8.0 | 0.00 | 0.36 | 0.23 | 41 | 1017.3 |
| 20260507160637 | 13 | 315 | 8.0 | 9.7 | 0.00 | 0.36 | 0.23 | 41 | 1017.5 |
| 20260507155630 | 13 | 270 | 11.3 | 12.9 | 0.00 | 0.36 | 0.23 | 42 | 1017.4 |
| 20260507154625 | 12 | 0 | 8.0 | 9.7 | 0.00 | 0.36 | 0.23 | 43 | 1017.4 |
| 20260507153625 | 12 | 315 | 12.9 | 14.5 | 0.00 | 0.36 | 0.23 | 50 | 1017.3 |
| 20260507152620 | 12 | 0 | 8.0 | 11.3 | 0.00 | 0.36 | 0.23 | 49 | 1017.4 |
| 20260507151613 | 12 | 315 | 8.0 | 12.9 | 0.00 | 0.36 | 0.23 | 45 | 1017.6 |
| 20260507150611 | 12 | 315 | 11.3 | 14.5 | 0.00 | 0.36 | 0.23 | 45 | 1017.7 |
| 20260507145609 | 13 | 315 | 8.0 | 11.3 | 0.00 | 0.36 | 0.23 | 43 | 1017.5 |
| 20260507144604 | 12 | 315 | 6.4 | 11.3 | 0.00 | 0.36 | 0.23 | 43 | 1017.5 |
| 20260507143603 | 12 | 0 | 4.8 | 6.4 | 0.00 | 0.36 | 0.23 | 41 | 1017.6 |
| 20260507142616 | 13 | 270 | 4.8 | 6.4 | 0.00 | 0.36 | 0.23 | 40 | 1017.5 |
| 20260507141550 | 13 | 270 | 4.8 | 6.4 | 0.00 | 0.36 | 0.23 | 40 | 1017.6 |
| 20260507140546 | 12 | 180 | 3.2 | 4.8 | 0.00 | 0.36 | 0.23 | 40 | 1017.8 |
| 20260507135538 | 12 | 293 | 6.4 | 8.0 | 0.00 | 0.36 | 0.23 | 40 | 1017.6 |
| 20260507134613 | 13 | 270 | 6.4 | 6.4 | 0.00 | 0.36 | 0.23 | 40 | 1017.7 |
| 20260507133534 | 13 | 180 | 8.0 | 11.3 | 0.00 | 0.36 | 0.23 | 41 | 1017.5 |
| 20260507132529 | 13 | 315 | 3.2 | 6.4 | 0.00 | 0.36 | 0.23 | 41 | 1017.4 |
| 20260507131522 | 12 | 180 | 6.4 | 11.3 | 0.00 | 0.36 | 0.23 | 41 | 1017.7 |
| 20260507130520 | 12 | 135 | 8.0 | 11.3 | 0.00 | 0.36 | 0.23 | 43 | 1017.6 |
| 20260507125514 | 11 | 270 | 11.3 | 14.5 | 0.00 | 0.36 | 0.23 | 47 | 1017.7 |
| 20260507124511 | 11 | 270 | 6.4 | 8.0 | 0.00 | 0.36 | 0.23 | 46 | 1017.7 |
| 20260507123508 | 11 | 270 | 6.4 | 9.7 | 0.00 | 0.36 | 0.23 | 48 | 1017.6 |
| 20260507122505 | 11 | 135 | 6.4 | 9.7 | 0.00 | 0.36 | 0.23 | 48 | 1018.0 |
| 20260507121623 | 11 | 225 | 6.4 | 8.0 | 0.00 | 0.36 | 0.23 | 48 | 1017.7 |
| 20260507120601 | 10 | 225 | 4.8 | 6.4 | 0.00 | 0.36 | 0.23 | 50 | 1017.7 |
| 20260507115552 | 10 | 248 | 9.7 | 12.9 | 0.00 | 0.36 | 0.23 | 48 | 1017.7 |
| 20260507114547 | 10 | 248 | 6.4 | 9.7 | 0.00 | 0.36 | 0.23 | 50 | 1017.8 |
| 20260507113546 | 10 | 225 | 6.4 | 11.3 | 0.00 | 0.36 | 0.23 | 49 | 1017.5 |
| 20260507112539 | 10 | 270 | 6.4 | 9.7 | 0.00 | 0.36 | 0.23 | 50 | 1017.7 |
| 20260507111536 | 10 | 225 | 4.8 | 6.4 | 0.00 | 0.36 | 0.23 | 50 | 1017.6 |
| 20260507110528 | 10 | 45 | 3.2 | 6.4 | 0.00 | 0.36 | 0.23 | 49 | 1017.8 |
| 20260507105550 | 10 | 180 | 12.9 | 14.5 | 0.00 | 0.36 | 0.23 | 50 | 1017.4 |
| 20260507104542 | 10 | 225 | 11.3 | 14.5 | 0.00 | 0.36 | 0.23 | 51 | 1017.4 |
| 20260507103516 | 10 | 135 | 9.7 | 12.9 | 0.00 | 0.36 | 0.23 | 51 | 1017.4 |
| 20260507102512 | 10 | 180 | 11.3 | 12.9 | 0.00 | 0.36 | 0.23 | 51 | 1017.4 |
| 20260507101532 | 10 | 225 | 9.7 | 12.9 | 0.00 | 0.36 | 0.23 | 52 | 1017.3 |
| 20260507100506 | 10 | 315 | 8.0 | 11.3 | 0.00 | 0.36 | 0.23 | 52 | 1017.2 |
| 20260507095503 | 10 | 270 | 9.7 | 16.1 | 0.00 | 0.36 | 0.23 | 53 | 1017.3 |
| 20260507094501 | 10 | 248 | 14.5 | 17.7 | 0.00 | 0.36 | 0.23 | 55 | 1017.0 |
| 20260507093453 | 9 | 270 | 9.7 | 14.5 | 0.00 | 0.36 | 0.23 | 55 | 1017.1 |
| 20260507092447 | 10 | 225 | 14.5 | 17.7 | 0.00 | 0.36 | 0.23 | 57 | 1016.9 |
| 20260507091443 | 10 | 203 | 6.4 | 9.7 | 0.00 | 0.36 | 0.23 | 59 | 1017.0 |
| 20260507090439 | 9 | 180 | 12.9 | 17.7 | 0.00 | 0.36 | 0.23 | 59 | 1017.1 |
| 20260507085436 | 8 | 225 | 9.7 | 11.3 | 0.00 | 0.36 | 0.23 | 60 | 1017.2 |
| 20260507084452 | 8 | 225 | 8.0 | 11.3 | 0.00 | 0.36 | 0.23 | 61 | 1016.9 |
| 20260507083427 | 8 | 135 | 11.3 | 16.1 | 0.00 | 0.36 | 0.23 | 62 | 1016.8 |
| 20260507082422 | 8 | 45 | 6.4 | 11.3 | 0.00 | 0.36 | 0.23 | 62 | 1016.8 |
| 20260507081416 | 7 | 270 | 6.4 | 9.7 | 0.00 | 0.38 | 0.23 | 62 | 1016.9 |
| 20260507080415 | 7 | 225 | 12.9 | 14.5 | 0.00 | 0.43 | 0.23 | 63 | 1016.6 |
| 20260507075412 | 7 | 225 | 8.0 | 9.7 | 0.00 | 0.46 | 0.23 | 63 | 1016.5 |
| 20260507074408 | 7 | 225 | 6.4 | 11.3 | 0.00 | 0.48 | 0.23 | 69 | 1016.3 |
| 20260507073403 | 7 | 180 | 8.0 | 11.3 | 0.00 | 0.48 | 0.23 | 70 | 1016.4 |
| 20260507072358 | 7 | 180 | 11.3 | 12.9 | 0.00 | 0.48 | 0.23 | 71 | 1016.3 |
| 20260507071354 | 6 | 180 | 6.4 | 11.3 | 0.00 | 0.48 | 0.23 | 72 | 1016.2 |
| 20260507070351 | 6 | 225 | 6.4 | 11.3 | 0.00 | 0.48 | 0.23 | 75 | 1016.1 |
| 20260507065346 | 6 | 270 | 9.7 | 12.9 | 0.00 | 0.48 | 0.23 | 78 | 1016.0 |
| 20260507064342 | 5 | 180 | 9.7 | 12.9 | 0.00 | 0.48 | 0.23 | 80 | 1016.0 |
| 20260507063332 | 5 | 180 | 6.4 | 9.7 | 0.00 | 0.48 | 0.23 | 81 | 1016.0 |
| 20260507062351 | 5 | 135 | 6.4 | 9.7 | 0.00 | 0.48 | 0.23 | 81 | 1016.2 |
| 20260507061328 | 5 | 225 | 6.4 | 9.7 | 0.00 | 0.48 | 0.23 | 82 | 1016.2 |
| 20260507060344 | 5 | 270 | 8.0 | 12.9 | 0.00 | 0.48 | 0.23 | 82 | 1015.9 |
| 20260507055319 | 4 | 180 | 6.4 | 11.3 | 0.00 | 0.48 | 0.23 | 82 | 1015.9 |
| 20260507054356 | 4 | 225 | 12.9 | 17.7 | 0.00 | 0.48 | 0.23 | 82 | 1015.9 |
| 20260507053312 | 4 | 225 | 6.4 | 12.9 | 0.00 | 0.48 | 0.23 | 82 | 1015.6 |
| 20260507052329 | 4 | 270 | 12.9 | 14.5 | 0.00 | 0.51 | 0.23 | 82 | 1015.9 |
| 20260507051304 | 4 | 180 | 8.0 | 12.9 | 0.00 | 0.51 | 0.23 | 82 | 1015.6 |
| 20260507050357 | 4 | 248 | 12.9 | 17.7 | 0.00 | 0.51 | 0.23 | 82 | 1015.4 |
| 20260507045357 | 4 | 180 | 9.7 | 14.5 | 0.00 | 0.51 | 0.23 | 82 | 1015.3 |
| 20260507044350 | 4 | 225 | 9.7 | 14.5 | 0.00 | 0.51 | 0.23 | 82 | 1015.5 |
| 20260507043346 | 4 | 315 | 12.9 | 17.7 | 0.00 | 0.51 | 0.23 | 82 | 1015.3 |
| 20260507042338 | 4 | 180 | 9.7 | 12.9 | 0.00 | 0.51 | 0.23 | 82 | 1015.3 |
| 20260507041339 | 4 | 225 | 8.0 | 11.3 | 0.00 | 0.51 | 0.23 | 82 | 1014.9 |
| 20260507040332 | 4 | 180 | 6.4 | 6.4 | 0.00 | 0.51 | 0.23 | 82 | 1015.0 |
| 20260507035327 | 4 | 180 | 6.4 | 8.0 | 0.00 | 0.51 | 0.23 | 82 | 1014.9 |
| 20260507034320 | 4 | 225 | 8.0 | 11.3 | 0.00 | 0.53 | 0.23 | 82 | 1014.9 |
| 20260507033341 | 4 | 270 | 8.0 | 11.3 | 0.00 | 0.53 | 0.23 | 82 | 1014.9 |
| 20260507032315 | 4 | 225 | 4.8 | 6.4 | 0.00 | 0.53 | 0.23 | 82 | 1015.0 |
| 20260507031312 | 4 | 270 | 11.3 | 12.9 | 0.00 | 0.56 | 0.23 | 82 | 1014.7 |
| 20260507030310 | 4 | 225 | 12.9 | 17.7 | 0.00 | 0.56 | 0.23 | 82 | 1014.9 |